Torna al catalogo

COSMOS 2155

AttivoNavigazioneGEO
NORAD 21702·PAYLOAD·🇷🇺 Russia

Lanciato Sep 13, 1991 da Baikonur Cosmodrome

Loading…

TLE

AggiornatoSource: Space-Track

Epoca: Sep 14, 2026, 13:00 UTC

1 21702U 91064A   26257.54221831  .00000019  00000-0  00000-0 0  9990
2 21702  13.0490 338.6278 0004021 244.5599 145.8931  1.00243142128237

Traccia COSMOS 2155 in tempo reale con AllMySat

Download on the App Store